Location: Unspecified
(0.0000°N, 0.0000°E)
Time: 22:01:13
(UTC+00:00)

Vela 2A - Pass Details

Date: 12 September 2024
Orbit: 51020 x 155464 km, 49.4° (Epoch: 10 October)

Event Time Altitude Azimuth Distance (km) Brightness Sun altitude
Rises 09:10:43 0° 41° (NE) 138,922 ? 48.5°
Reaches altitude 10° 10:27:46 10° 39° (NE) 140,463 ? 67.6°
Maximum altitude 16:17:19 40° 359° (N) 147,470 ? 24.6°
Drops below altitude 10° 21:47:41 10° 318° (NW) 156,626 ? -57.7°
Sets 22:55:38 0° 316° (NW) 158,659 ? -74.5°
